Date String (YYYY-MM-DD hh:mm:ss) UTC,Instrument flags,absolute air pressure of the measurement (hPa),sample flow rate (lpm),inlet stack bypass flow (lpm),air temperature of the measurement (°C),ambient temperature measured by the external sensor (°C),aerosol sample conditioner tube jacket temperature (°C),OPC LED temperature (°C),internal box temperature (°C),relative humidity of the measurement (%),span deviation,mass concentration of particles derived from Lorenz-Mie calculation of OPC scattering (μg/m³),mass concentration of particles derived from Lorenz-Mie calculation of OPC scattering (μg/m³),mass concentration of particles derived from Lorenz-Mie calculation of OPC scattering (μg/m³)
DateTimeUTC,F1_M11,P_M11,Q1_M11,Q2_M11,T1_M11,T2_M11,T3_M11,T4_M11,T5_M11,U1_M11,ZSPAN_M11,X0_M11,X2_M11,X1_M11
2023-08-02 01:00:00,SystemResetWarning,0835.4,4.99,000.00,030.2,028.1,000.0,038.4,031.2,34.3,0000.0,0005.39,0003.27,0002.46
2023-08-02 01:01:00,SystemResetWarning,0835.5,4.99,000.00,030.2,028.2,000.0,038.4,031.2,34.3,0000.0,0005.45,0003.30,0002.49
2023-08-02 01:02:00,SystemResetWarning,0835.3,5.01,000.00,030.2,028.2,000.0,038.4,031.2,34.3,0000.0,0005.49,0003.31,0002.52
2023-08-02 01:03:00,SystemResetWarning,0835.2,5.00,000.00,030.2,027.8,000.0,038.4,031.2,34.3,0000.0,0005.86,0003.37,0002.58
2023-08-02 01:04:00,SystemResetWarning,0835.3,5.00,000.00,030.1,026.1,000.0,038.3,031.0,33.9,0000.0,0006.31,0003.41,0002.63
2023-08-02 01:05:00,SystemResetWarning,0835.3,5.01,000.00,030.0,025.3,000.0,038.2,030.8,34.4,0000.0,0006.43,0003.45,0002.68
2023-08-02 01:06:00,SystemResetWarning,0835.2,5.01,000.00,029.9,025.3,000.0,038.2,030.5,34.5,0000.0,0006.49,0003.48,0002.71
2023-08-02 01:07:00,SystemResetWarning,0835.0,4.98,000.00,029.8,025.6,000.0,038.2,030.5,35.3,0000.0,0006.49,0003.48,0002.71
2023-08-02 01:08:00,SystemResetWarning,0835.0,5.04,000.00,029.9,026.0,000.0,038.2,030.7,35.1,0000.0,0006.38,0003.47,0002.73
2023-08-02 01:09:00,SystemResetWarning,0835.0,4.97,000.00,030.1,026.4,000.0,038.2,030.8,34.5,0000.0,0006.47,0003.50,0002.76
2023-08-02 01:10:00,SystemResetWarning,0835.0,5.01,000.00,030.3,026.7,000.0,038.2,030.9,34.4,0000.0,0006.62,0003.54,0002.80
2023-08-02 01:11:00,SystemResetWarning,0835.2,5.01,000.00,030.4,027.0,000.0,038.2,030.9,34.2,0000.0,0006.90,0003.61,0002.84
2023-08-02 01:12:00,SystemResetWarning,0834.8,4.99,000.00,030.4,027.2,000.0,038.3,030.9,34.1,0000.0,0007.05,0003.66,0002.86
2023-08-02 01:13:00,SystemResetWarning,0834.8,4.99,000.00,030.4,027.4,000.0,038.3,031.0,33.0,0000.0,0006.99,0003.65,0002.87
2023-08-02 01:14:00,SystemResetWarning,0835.0,5.00,000.00,030.4,027.5,000.0,038.4,031.0,32.1,0000.0,0007.03,0003.68,0002.89
2023-08-02 01:15:00,SystemResetWarning,0834.9,5.01,000.00,030.5,027.7,000.0,038.4,031.1,32.7,0000.0,0007.11,0003.67,0002.89
2023-08-02 01:16:00,SystemResetWarning,0834.6,5.01,000.00,030.5,027.8,000.0,038.4,031.1,32.9,0000.0,0007.54,0003.65,0002.88
2023-08-02 01:17:00,SystemResetWarning,0834.9,5.00,000.00,030.5,027.9,000.0,038.5,031.1,32.7,0000.0,0007.46,0003.63,0002.90
2023-08-02 01:18:00,SystemResetWarning,0834.9,5.00,000.00,030.5,028.0,000.0,038.5,031.2,32.6,0000.0,0007.42,0003.63,0002.92
2023-08-02 01:19:00,SystemResetWarning,0834.6,5.00,000.00,030.5,028.0,000.0,038.5,031.2,32.7,0000.0,0007.37,0003.62,0002.92
2023-08-02 01:20:00,SystemResetWarning,0834.5,5.00,000.00,030.5,028.1,000.0,038.6,031.2,32.0,0000.0,0007.38,0003.62,0002.91
2023-08-02 01:21:00,SystemResetWarning,0834.4,5.00,000.00,030.5,028.2,000.0,038.6,031.2,31.5,0000.0,0007.41,0003.61,0002.89
2023-08-02 01:22:00,SystemResetWarning,0834.4,4.99,000.00,030.5,028.2,000.0,038.6,031.3,32.0,0000.0,0007.28,0003.56,0002.86
2023-08-02 01:23:00,SystemResetWarning,0834.4,4.99,000.00,030.5,028.1,000.0,038.6,031.3,32.1,0000.0,0007.18,0003.53,0002.86
2023-08-02 01:24:00,SystemResetWarning,0834.4,5.00,000.00,030.5,026.5,000.0,038.5,031.2,31.6,0000.0,0007.13,0003.51,0002.86
2023-08-02 01:25:00,SystemResetWarning,0834.5,5.00,000.00,030.4,025.5,000.0,038.4,031.0,31.4,0000.0,0007.00,0003.50,0002.87
2023-08-02 01:26:00,SystemResetWarning,0834.4,5.00,000.00,030.3,025.3,000.0,038.4,030.7,31.4,0000.0,0006.45,0003.49,0002.88
2023-08-02 01:27:00,SystemResetWarning,0834.6,5.01,000.00,030.1,025.6,000.0,038.4,030.6,32.3,0000.0,0005.68,0003.50,0002.90
2023-08-02 01:28:00,SystemResetWarning,0834.4,5.01,000.00,030.1,026.0,000.0,038.4,030.7,32.3,0000.0,0005.62,0003.49,0002.91
2023-08-02 01:29:00,SystemResetWarning,0834.3,4.99,000.00,030.0,026.4,000.0,038.4,030.7,32.0,0000.0,0005.55,0003.47,0002.89
2023-08-02 01:30:00,SystemResetWarning,0834.3,5.00,000.00,030.0,026.7,000.0,038.4,030.8,32.1,0000.0,0005.56,0003.47,0002.89
2023-08-02 01:31:00,SystemResetWarning,0834.5,5.00,000.00,030.0,027.0,000.0,038.4,030.8,31.9,0000.0,0005.55,0003.48,0002.90
2023-08-02 01:32:00,SystemResetWarning,0834.3,5.00,000.00,030.0,027.2,000.0,038.4,030.9,32.2,0000.0,0005.48,0003.46,0002.91
2023-08-02 01:33:00,SystemResetWarning,0834.3,5.01,000.00,030.0,027.4,000.0,038.3,030.9,32.1,0000.0,0005.51,0003.47,0002.92
2023-08-02 01:34:00,SystemResetWarning,0834.3,4.99,000.00,029.9,027.5,000.0,038.3,031.0,32.3,0000.0,0005.44,0003.45,0002.90
2023-08-02 01:35:00,SystemResetWarning,0834.2,5.00,000.00,029.9,027.7,000.0,038.3,031.0,32.9,0000.0,0005.55,0003.46,0002.88
2023-08-02 01:36:00,SystemResetWarning,0834.7,5.00,000.00,029.9,027.8,000.0,038.3,031.0,32.2,0000.0,0005.52,0003.45,0002.87
2023-08-02 01:37:00,SystemResetWarning,0834.6,5.00,000.00,030.0,027.9,000.0,038.3,031.0,32.1,0000.0,0005.56,0003.46,0002.86
2023-08-02 01:38:00,SystemResetWarning,0834.6,5.00,000.00,030.0,027.9,000.0,038.3,031.1,32.1,0000.0,0005.50,0003.45,0002.83
2023-08-02 01:39:00,SystemResetWarning,0834.4,5.01,000.00,030.0,028.0,000.0,038.3,031.1,31.9,0000.0,0005.50,0003.44,0002.78
2023-08-02 01:40:00,SystemResetWarning,0834.6,5.00,000.00,030.0,028.1,000.0,038.3,031.1,31.4,0000.0,0005.52,0003.43,0002.75
2023-08-02 01:41:00,SystemResetWarning,0834.5,5.00,000.00,030.0,028.1,000.0,038.3,031.1,31.6,0000.0,0005.66,0003.44,0002.73
2023-08-02 01:42:00,SystemResetWarning,0834.4,5.00,000.00,030.0,028.2,000.0,038.3,031.2,32.2,0000.0,0005.51,0003.40,0002.70
2023-08-02 01:43:00,SystemResetWarning,0834.3,5.00,000.00,030.0,028.2,000.0,038.3,031.2,31.4,0000.0,0005.43,0003.38,0002.66
2023-08-02 01:44:00,SystemResetWarning,0834.5,4.99,000.00,030.0,028.3,000.0,038.3,031.2,31.5,0000.0,0005.36,0003.31,0002.63
2023-08-02 01:45:00,SystemResetWarning,0834.5,4.99,000.00,030.0,028.3,000.0,038.4,031.3,31.6,0000.0,0006.14,0003.32,0002.61
2023-08-02 01:46:00,SystemResetWarning,0834.6,5.00,000.00,030.0,028.1,000.0,038.3,031.3,31.0,0000.0,0006.03,0003.31,0002.62
2023-08-02 01:47:00,SystemResetWarning,0834.6,5.00,000.00,030.0,026.5,000.0,038.2,031.1,31.2,0000.0,0006.01,0003.31,0002.60
2023-08-02 01:48:00,SystemResetWarning,0834.4,5.00,000.00,029.9,025.5,000.0,038.1,030.9,31.4,0000.0,0006.07,0003.31,0002.59
2023-08-02 01:49:00,SystemResetWarning,0834.4,5.00,000.00,029.8,025.4,000.0,038.1,030.6,31.6,0000.0,0006.13,0003.31,0002.61
2023-08-02 01:50:00,SystemResetWarning,0834.2,5.02,000.00,029.7,025.7,000.0,038.1,030.6,31.4,0000.0,0006.18,0003.32,0002.62
2023-08-02 01:51:00,SystemResetWarning,0834.4,4.99,000.00,029.6,026.1,000.0,038.1,030.6,31.8,0000.0,0006.17,0003.32,0002.62
2023-08-02 01:52:00,SystemResetWarning,0834.2,4.99,000.00,029.6,026.5,000.0,038.1,030.7,31.7,0000.0,0006.01,0003.31,0002.64
2023-08-02 01:53:00,SystemResetWarning,0834.2,5.00,000.00,029.6,026.8,000.0,038.1,030.8,31.8,0000.0,0006.12,0003.33,0002.63
2023-08-02 01:54:00,SystemResetWarning,0834.3,5.01,000.00,029.6,027.1,000.0,038.1,030.8,32.3,0000.0,0006.12,0003.32,0002.64
2023-08-02 01:55:00,SystemResetWarning,0834.3,5.00,000.00,029.6,027.3,000.0,038.1,030.9,32.6,0000.0,0006.12,0003.32,0002.63
2023-08-02 01:56:00,SystemResetWarning,0834.3,5.00,000.00,029.6,027.5,000.0,038.1,030.9,31.9,0000.0,0005.26,0003.32,0002.62
2023-08-02 01:57:00,SystemResetWarning,0834.3,5.00,000.00,029.6,027.7,000.0,038.1,031.0,32.0,0000.0,0005.02,0003.27,0002.58
2023-08-02 01:58:00,SystemResetWarning,0834.3,5.00,000.00,029.6,027.8,000.0,038.1,031.0,30.8,0000.0,0004.95,0003.25,0002.55
2023-08-02 01:59:00,SystemResetWarning,0834.4,4.99,000.00,029.6,027.9,000.0,038.1,031.0,32.1,0000.0,0004.64,0003.17,0002.51
